Visibility
15.0 15.0 15.0 15.0 15.0 15.0 15.0 15.0 15.0 15.0 15.0 15.0 15.0 15.0 15.0 15.0 15.0 15.0 15.0 15.0 15.0 15.0 15.0 15.0 15.0 15.0 15.0 15.0 15.0 15.0 15.0 15.0
15.0 15.0 15.0 15.0 15.0 15.0 15.0 15.0 15.0 15.0 15.0 15.0 15.0 15.0 15.0 15.0 15.0 15.0 15.0 15.0 15.0 15.0 15.0 15.0 15.0 15.0 15.0 15.0 15.0 15.0 15.0 15.0
15.0 15.0 15.0 15.0 15.0 15.0 15.0 15.0 15.0 15.0 15.0 15.0 15.0 15.0 15.0 15.0 15.0 15.0 15.0 15.0 15.0 15.0 15.0 15.0 15.0 15.0 15.0 15.0 15.0 15.0 15.0 15.0
15.0 15.0 15.0 15.0 15.0 15.0 15.0 15.0 15.0 15.0 15.0 15.0 15.0 15.0 15.0 15.0 15.0 15.0 15.0 15.0 15.0 15.0 15.0 15.0 15.0 15.0 15.0 15.0 15.0 15.0 1.9 2.9
15.0 15.0 15.0 15.0 15.0 15.0 15.0 15.0 15.0 15.0 15.0 15.0 15.0 15.0 15.0 15.0 15.0 15.0 15.0 15.0 15.0 15.0 15.0 15.0 15.0 15.0 15.0 15.0 15.0 15.0 15.0 0.1
15.0 15.0 15.0 15.0 15.0 15.0 15.0 15.0 15.0 15.0 15.0 15.0 15.0 15.0 15.0 15.0 15.0 15.0 15.0 15.0 15.0 15.0 15.0 15.0 3.4 15.0 15.0 15.0 15.0 15.0 15.0 15.0
15.0 15.0 15.0 15.0 15.0 15.0 15.0 15.0 15.0 15.0 15.0 15.0 15.0 15.0 15.0 15.0 15.0 7.4 11.9 8.6 15.0 15.0 15.0 15.0 15.0 15.0 15.0 15.0 15.0 15.0 15.0 15.0
15.0 15.0 15.0 15.0 15.0 15.0 15.0 15.0 15.0 15.0 15.0 15.0 15.0 15.0 15.0 15.0 15.0 14.2 11.1 10.6 15.0 15.0 15.0 15.0 15.0 15.0 15.0 15.0 15.0 14.5 15.0 15.0
15.0 15.0 15.0 15.0 15.0 15.0 15.0 15.0 15.0 15.0 15.0 15.0 15.0 15.0 15.0 15.0 15.0 13.0 15.0 15.0 15.0 15.0 3.6 15.0 15.0 15.0 15.0 15.0 15.0 9.6 15.0 7.2
15.0 15.0 15.0 15.0 15.0 15.0 15.0 15.0 15.0 15.0 14.8 13.5 9.1 14.2 11.2 10.6 14.2 14.8 13.6 12.0 14.8 15.0 12.6 15.0 14.3 3.4 15.0 15.0 15.0 13.7 15.0 15.0
15.0 15.0 15.0 15.0 15.0 15.0 15.0 15.0 15.0 15.0 14.6 10.1 9.5 10.4 15.0 15.0 15.0 15.0 15.0 15.0 15.0 15.0 15.0 15.0 11.3 8.7 5.3 14.6 15.0 15.0 15.0 15.0
15.0 15.0 15.0 15.0 15.0 15.0 15.0 15.0 15.0 15.0 15.0 6.7 1.4 8.6 10.9 14.9 15.0 15.0 15.0 15.0 15.0 15.0 15.0 15.0 13.3 3.3 6.8 2.7 15.0 15.0 15.0 15.0
15.0 15.0 15.0 15.0 15.0 15.0 15.0 15.0 15.0 15.0 15.0 15.0 10.2 4.7 1.5 14.6 6.9 3.9 15.0 15.0 15.0 15.0 15.0 10.8 14.7 14.5 7.2 15.0 13.7 15.0 15.0 1.3
15.0 15.0 15.0 15.0 15.0 15.0 15.0 15.0 10.8 13.2 15.0 8.2 12.6 14.4 1.7 0.6 0.4 2.4 4.6 10.2 15.0 15.0 15.0 15.0 15.0 8.4 5.9 15.0 15.0 7.9 15.0 15.0
15.0 15.0 15.0 15.0 15.0 15.0 15.0 15.0 1.8 0.7 4.8 15.0 10.0 3.5 5.1 3.9 6.0 1.3 6.3 6.8 13.6 15.0 15.0 15.0 15.0 11.0 15.0 14.0 15.0 15.0 15.0 12.9
15.0 15.0 15.0 15.0 15.0 15.0 15.0 15.0 14.3 15.0 6.7 0.7 9.1 8.4 7.4 1.6 4.1 6.5 1.5 6.6 12.0 15.0 15.0 11.5 15.0 15.0 15.0 15.0 15.0 15.0 14.8 2.5
15.0 15.0 15.0 15.0 15.0 15.0 15.0 15.0 0.1 11.8 11.1 15.0 14.5 14.8 14.9 15.0 14.7 15.0 14.1 5.6 13.5 14.9 15.0 15.0 15.0 15.0 9.8 1.9 0.9 15.0 15.0 15.0
12.4 13.1 12.9 14.7 14.8 15.0 15.0 5.3 12.5 4.8 15.0 15.0 3.1 2.3 5.6 11.4 10.9 5.0 0.4 2.1 1.9 0.7 8.0 15.0 2.6 14.6 13.0 15.0 15.0 15.0 15.0 15.0
7.1 8.2 10.4 12.8 15.0 15.0 15.0 15.0 15.0 15.0 14.3 10.3 13.2 3.2 5.4 3.7 7.1 0.2 0.4 1.9 0.2 0.1 0.2 9.6 14.4 15.0 15.0 15.0 15.0 15.0 15.0 15.0